Regional Weather Roundup
Issued by NWS

Home | Current Version | Previous Version | Graphics & Text | Print | Product List | Glossary On
Versions: 1 2 3 4 5 6 7 8 9 10 11 12 13 14 15 16 17 18 19 20 21 22 23 24 25 26 27 28 29 30 31 32 33 34 35 36 37 38 39 40 41 42 43 44 45 46 47 48 49 50
000
ASUS43 KLSX 020807
RWRMO

WEATHER SUMMARY FOR MISSOURI
NATIONAL WEATHER SERVICE SPRINGFIELD MO
300 AM CDT THU OCT 02 2014

NOTE: "FAIR" INDICATES FEW OR NO CLOUDS BELOW 12,000 FEET WITH NO
       SIGNIFICANT WEATHER AND/OR OBSTRUCTIONS TO VISIBILITY.
       CURRENT SKY AND/OR WEATHER CONDITIONS ARE NOT AVAILABLE FOR
       CHILLICOTHE AND FARMINGTON.

MOZ001>031-035>038-043-044-053-054-020900-
...NORTHERN AND WESTERN MISSOURI...

CITY           SKY/WX    TMP DP  RH WIND       PRES   REMARKS
KANSAS CTY INT CLOUDY    66  64  93 E7        29.75F
KANSAS C DTWN  CLOUDY    68  64  87 E6        29.74S
LEE`S SUMMIT   PTCLDY    65  62  90 SE5       29.75S
ST JOSEPH      PTCLDY    63  62  97 SE6       29.73F
CHILLICOTHE      N/A     65  63  93 SE5       29.77S
KIRKSVILLE     CLOUDY    64  64 100 S5        29.80R

$$
MOZ066>068-077>081-088>096-101>105-020900-
...SOUTHWEST MISSOURI...

CITY           SKY/WX    TMP DP  RH WIND       PRES   REMARKS
SPRINGFIELD    CLEAR     72  67  84 S16       29.78F
JOPLIN         MOCLDY    74  68  81 S14       29.74F

$$
MOZ032>034-039>042-045>050-055>058-069>072-020900-
...CENTRAL MISSOURI...

CITY           SKY/WX    TMP DP  RH WIND       PRES   REMARKS
COLUMBIA       LGT RAIN  64  62  93 E9        29.83F
ROLLA          PTCLDY    71  66  84 S8        29.82S
SEDALIA        LGT RAIN  66  63  90 E8        29.79F FOG
WHITEMAN AFB   TSTM      64  63  96 S8        29.77F
OSAGE BEACH    CLEAR     70  64  83 NE6       29.80F

$$
MOZ051-052-059>065-020900-
...EAST CENTRAL MISSOURI...

CITY           SKY/WX    TMP DP  RH WIND       PRES   REMARKS
ST LOUIS INTL  CLOUDY    70  67  90 SE7       29.85F
SPIRIT OF STL  MOCLDY    68  67  96 CALM      29.83F
ST CHARLES     CLOUDY    68  67  96 SE6       29.83F

$$
MOZ072>076-082>087-097>100-106>115-020900-
...SOUTH CENTRAL AND SOUTHEAST MISSOURI...

CITY           SKY/WX    TMP DP  RH WIND       PRES   REMARKS
CAPE GIRARDEAU CLOUDY    73  61  65 S9        29.87F
FARMINGTON     PTCLDY    72  63  73 S10       29.89R
POPLAR BLUFF   MOCLDY    67  62  84 S3        29.86S
WEST PLAINS    CLEAR     70  66  87 S6        29.87F

$$



USA.gov is the U.S. government's official web portal to all federal, state and local government web resources and services.